Regional Weather Roundup
Issued by NWS Green Bay, WI

Home | Current Version | Previous Version | Graphics & Text | Print | Product List | Glossary Off
Versions: 1 2 3 4 5 6 7 8 9 10 11 12 13 14 15 16 17 18 19 20 21 22 23 24 25 26 27 28 29 30 31 32 33 34 35 36 37 38 39 40 41 42 43 44 45 46 47 48 49 50

000
ASUS43 KGRB 221011
RWRGRB

NORTH-CENTRAL AND NORTHEAST WISCONSIN REGIONAL WEATHER ROUNDUP
NATIONAL WEATHER SERVICE GREEN BAY WI
400 AM CST WED FEB 22 2017

WIZ005-009-010>012-018-019-221100-
NORTH CENTRAL WISCONSIN

CITY           SKY/WX    TMP DP  RH WIND       PRES   REMARKS
IRONWOOD       CLEAR     44  37  76 S8        29.63R
MANITOWISH WTR PTCLDY    37  36  99 CALM      29.63F
ARBOR VITAE    CLOUDY    39  34  82 CALM        N/A
EAGLE RIVER    CLEAR     40  32  73 CALM      29.64S
LAND O LAKES   MOCLDY    41  33  73 CALM      29.66S
RHINELANDER    CLOUDY    41  35  79 SW7       29.66F
PHILLIPS       CLOUDY    32  31  97 CALM      29.64S
ANTIGO         PTCLDY    40  34  80 SW6       29.68S
TOMAHAWK       PTCLDY    33  31  92 CALM      29.66F
MERRILL        NOT AVBL
$$

WIZ013-073-221100-
NORTHEAST WISCONSIN

CITY           SKY/WX    TMP DP  RH WIND       PRES   REMARKS
IRON MOUNTAIN  CLOUDY    33  29  85 SE3       29.64F
MARINETTE      CLOUDY    42  35  76 SW3       29.70F
OCONTO         CLOUDY    32  31  96 CALM      29.70F
$$

WIZ017-030-035>037-045-221100-
CENTRAL WISCONSIN

CITY           SKY/WX    TMP DP  RH WIND       PRES   REMARKS
MEDFORD        PTCLDY    39  35  84 S5        29.66S
WAUSAU         PTCLDY    43  35  73 S6        29.66F
MOSINEE        PTCLDY    37  36  93 S7        29.68F
MARSHFIELD     PTCLDY    39  34  82 SW6       29.66F
WISC RAPIDS    PTCLDY    35  34  96 SW3       29.70F
STEVENS POINT  PTCLDY    32  32  99 CALM      29.69F
WAUPACA        CLEAR     39  34  81 CALM      29.71F
SHAWANO        MOCLDY    41  35  79 CALM      29.70F
CLINTONVILLE   PTCLDY    34  32  93 CALM      29.69F
WAUTOMA        CLEAR     32  29  88 CALM      29.71F
$$

WIZ038-039-048-051-221100-
FOX VALLEY

CITY           SKY/WX    TMP DP  RH WIND       PRES   REMARKS
NWS GREEN BAY  CLEAR     42  38  85 S3        29.72S
APPLETON       CLEAR     36  32  87 SE7       29.69F
OSHKOSH        CLEAR     45  39  79 S12       29.70F
FOND DU LAC    CLEAR     49  41  74 SW12      29.72F
$$

WIZ022-050-052-221100-
EAST CENTRAL WISCONSIN

CITY           SKY/WX    TMP DP  RH WIND       PRES   REMARKS
EPHRAIM        FAIR      38  38 100 S5        29.70F
WASHINGTON ISL PTSUNNY   37  36  99 S9        29.70F FOG
STURGEON BAY   PTCLDY    37  35  92 SE3       29.72F
MANITOWOC      CLEAR     35  34  96 CALM      29.74S FOG
SHEBOYGAN      CLEAR     38  35  89 S6        29.73F
$$

LMZ563-521-522-541>543-221100-
LAKESHORE

STATION/POSITION TIME  TEMP    WIND        PRES    VSBY  WAVE
                       AIR SEA DIR/SP/G                  HT/PER
                 (UTC) (F)     (DEG/KT/KT) (MB)    (MI)  (FT/S)
SHEBOYGAN LKSHOR 1000   41     180/ 12/ 13 1007.3F
KEWAUNEE LKSHORE 0948   37     170/  1/  3 1006.2F
ALGOMA MARINA    0910          210/  8/ 10   N/A
NORTHPORT PIER   0940   39     160/  4/  7 1006.1F
SISTER BAY LKSHO 0905   42     140/  9/ 11   N/A
CHAMBERS ISLAND  0940   46     180/  5/ 10 1005.8S
MENOMINEE LKSHOR 0948   37     170/  4/  5 1005.0F
$$



USA.gov is the U.S. government's official web portal to all federal, state and local government web resources and services.